EW7149 Weather Reports


Display with metric or nautical units.
time (UTC)temp
F
wind
direction
speed
MPH
gust
MPH
rain 1hr
in
rain 24hr
in
rain mn
in
humidity
%
barometer
mb
20260905073609 74 240 0.0 2.0 0.00 0.17 0.00 1 1010.0
20260905072454 74 306 0.0 2.0 0.00 0.17 0.00 1 1010.0
20260905072000 74 307 0.0 0.0 0.00 0.17 0.00 1 1010.0
20260905071450 74 309 0.0 4.0 0.00 0.17 0.00 1 1010.1
20260905070943 74 309 0.0 5.0 0.00 0.17 0.00 1 1010.2
20260905065815 74 284 0.0 5.0 0.00 0.17 0.00 1 1010.5
20260905065301 74 254 0.0 3.0 0.00 0.17 0.00 1 1010.5
20260905064742 74 292 0.0 2.0 0.00 0.17 0.00 1 1010.6
20260905064236 74 265 1.0 6.0 0.00 0.17 0.00 1 1010.7
20260905063737 74 285 1.0 6.0 0.00 0.17 0.00 1 1010.7
20260905063243 74 243 1.0 5.0 0.00 0.17 0.00 1 1010.8
20260905062749 74 283 0.0 5.0 0.00 0.17 0.00 1 1011.0
20260905062251 74 246 1.0 5.0 0.00 0.17 0.00 1 1011.0
20260905061800 74 246 1.0 5.0 0.00 0.17 0.00 1 1011.0
20260905061256 74 298 0.0 3.0 0.00 0.17 0.00 1 1011.0
20260905060755 74 260 0.0 3.0 0.00 0.17 0.00 1 1011.1
20260905060255 75 259 0.0 0.0 0.00 0.17 0.00 1 1011.1
20260905055800 75 259 0.0 3.0 0.00 0.17 0.00 1 1011.1
20260905055247 75 256 1.0 3.0 0.00 0.17 0.00 1 1011.1
20260905054757 75 259 0.0 3.0 0.00 0.17 0.00 1 1011.2
20260905054242 75 250 0.0 3.0 0.00 0.17 0.00 1 1011.1
20260905053738 75 250 1.0 3.0 0.00 0.17 0.00 1 1011.2
20260905053243 75 238 1.0 7.0 0.00 0.17 0.00 1 1011.4
20260905052051 75 309 1.0 7.0 0.00 0.17 0.00 1 1011.4
20260905051559 75 241 1.0 7.0 0.00 0.17 0.00 1 1011.4
20260905051054 75 286 1.0 6.0 0.00 0.17 0.00 1 1011.4
20260905050540 75 251 0.0 3.0 0.00 0.17 0.00 1 1011.5
20260905050038 75 254 0.0 3.0 0.00 0.17 0.00 1 1011.4
20260905045525 75 295 0.0 3.0 0.00 0.17 0.00 1 1011.4
20260905044354 76 232 0.0 4.0 0.00 0.17 0.00 1 1011.7
20260905043854 76 284 1.0 7.0 0.00 0.17 0.00 1 1011.6
20260905043347 76 257 0.0 7.0 0.00 0.17 0.00 1 1011.5
20260905042844 76 258 0.0 7.0 0.00 0.17 0.00 1 1011.5
20260905042341 76 266 0.0 7.0 0.00 0.17 0.00 1 1011.5
20260905041836 76 278 0.0 2.0 0.00 0.17 0.00 1 1011.6
20260905041319 76 240 0.0 3.0 0.00 0.19 0.00 1 1011.7
20260905040145 76 254 0.0 2.0 0.00 0.19 0.00 1 1011.7
20260905035644 76 251 0.0 0.0 0.00 0.20 0.19 1 1011.8
20260905035150 76 251 0.0 3.0 0.00 0.21 0.19 1 1011.8
20260905034656 76 238 0.0 0.0 0.00 0.21 0.19 1 1011.7
20260905034153 76 238 0.0 1.0 0.00 0.22 0.19 1 1011.8
20260905033657 76 234 0.0 0.0 0.00 0.22 0.19 1 1011.8
20260905033144 76 264 0.0 0.0 0.00 0.23 0.19 1 1011.8
20260905031352 76 264 0.0 0.0 0.00 0.23 0.19 1 1011.9
20260905030856 76 265 0.0 1.0 0.00 0.23 0.19 1 1011.8
20260905025716 76 265 0.0 0.0 0.00 0.25 0.19 1 1011.7
20260905025218 76 265 0.0 0.0 0.00 0.33 0.19 1 1011.7
20260905024704 76 265 0.0 0.0 0.00 0.38 0.19 1 1011.6
20260905024148 76 265 0.0 0.0 0.00 0.38 0.19 1 1011.5
20260905023021 76 265 0.0 0.0 0.00 0.38 0.19 1 1011.5
20260905022530 76 265 0.0 0.0 0.00 0.38 0.19 1 1011.5
20260905021415 77 265 0.0 0.0 0.00 0.38 0.19 1 1011.5
20260905015614 77 265 0.0 1.0 0.00 0.38 0.19 1 1011.4
20260905015119 77 265 0.0 0.0 0.00 0.38 0.19 1 1011.4
20260905014607 77 265 0.0 0.0 0.00 0.38 0.19 1 1011.3
20260905013453 77 265 0.0 0.0 0.00 0.38 0.19 1 1011.1
20260905012945 77 265 0.0 0.0 0.00 0.38 0.19 1 1011.1
20260905012439 77 265 0.0 0.0 0.00 0.38 0.19 1 1011.0
20260905011940 77 267 0.0 0.0 0.00 0.38 0.19 1 1011.0
20260905010821 77 269 0.0 0.0 0.00 0.38 0.19 1 1011.0
20260905010325 77 269 0.0 0.0 0.00 0.38 0.19 1 1011.0
20260905005818 77 269 0.0 2.0 0.00 0.38 0.19 1 1011.0
20260905005307 77 269 0.0 0.0 0.00 0.38 0.19 1 1011.1
20260905004748 77 252 0.0 0.0 0.00 0.38 0.19 1 1011.0
20260905004239 77 252 0.0 1.0 0.00 0.38 0.19 1 1011.0
20260905003731 77 252 0.0 1.0 0.00 0.38 0.19 1 1011.0
20260905003220 77 252 0.0 0.0 0.00 0.38 0.19 1 1011.0
20260905002715 78 252 0.0 0.0 0.00 0.38 0.19 1 1010.9
20260905002200 78 252 0.0 1.0 0.00 0.38 0.19 1 1010.8
20260905001703 78 252 0.0 0.0 0.00 0.38 0.19 1 1010.7
20260905001205 78 252 0.0 0.0 0.00 0.38 0.19 1 1010.7
20260905000649 78 252 0.0 0.0 0.00 0.38 0.19 1 1010.7
20260905000150 78 252 0.0 0.0 0.00 0.38 0.19 1 1010.9
20260904235650 79 252 0.0 0.0 0.00 0.38 0.19 1 1010.8
20260904234527 79 253 0.0 0.0 0.00 0.38 0.19 1 1010.9
20260904234035 80 253 0.0 0.0 0.00 0.38 0.19 1 1010.8
20260904233540 80 253 0.0 0.0 0.00 0.38 0.19 1 1010.8
20260904233023 80 253 0.0 0.0 0.00 0.38 0.19 1 1011.0
20260904232521 80 253 0.0 0.0 0.00 0.38 0.19 1 1010.9
20260904232017 80 253 0.0 0.0 0.00 0.38 0.19 1 1011.0
20260904231526 81 253 0.0 0.0 0.00 0.38 0.19 1 1011.2
20260904231034 81 253 0.0 0.0 0.00 0.38 0.19 1 1011.1
20260904230531 81 253 0.0 0.0 0.00 0.38 0.19 1 1011.0
20260904230012 81 253 0.0 2.0 0.00 0.38 0.19 1 1011.0
20260904224244 82 252 0.0 0.0 0.00 0.38 0.19 1 1011.1
20260904223729 82 252 0.0 0.0 0.00 0.38 0.19 1 1011.2
20260904223221 82 252 0.0 0.0 0.00 0.38 0.19 1 1011.1
20260904222707 83 252 0.0 0.0 0.00 0.38 0.19 1 1011.2
20260904222203 83 252 0.0 0.0 0.00 0.38 0.19 1 1011.2
20260904221652 83 252 0.0 0.0 0.00 0.38 0.19 1 1011.2
20260904221159 83 252 0.0 0.0 0.00 0.38 0.19 1 1011.1
20260904220654 83 252 0.0 0.0 0.00 0.38 0.19 1 1011.2
20260904214247 83 252 0.0 0.0 0.00 0.38 0.19 1 1011.4
20260904212445 83 252 0.0 2.0 0.00 0.38 0.19 1 1011.6
20260904211945 83 252 0.0 1.0 0.00 0.38 0.19 1 1011.7
20260904211454 83 251 0.0 0.0 0.00 0.38 0.19 1 1011.8
20260904210328 84 252 0.0 1.0 0.00 0.38 0.19 1 1011.7
20260904205821 84 251 0.0 1.0 0.00 0.38 0.19 1 1011.8
20260904204705 84 251 0.0 0.0 0.00 0.38 0.19 1 1012.1
20260904204212 84 251 0.0 0.0 0.00 0.38 0.19 1 1011.9
20260904203719 84 251 0.0 0.0 0.00 0.38 0.19 3 1011.9
20260904201949 85 251 0.0 0.0 0.00 0.38 0.19 15 1011.7
20260904201451 85 251 0.0 0.0 0.00 0.38 0.19 11 1011.7
20260904200933 85 251 0.0 0.0 0.00 0.38 0.19 18 1011.7
20260904200427 85 256 0.0 6.0 0.00 0.38 0.19 22 1011.8
20260904195912 85 257 0.0 7.0 0.00 0.38 0.19 26 1011.8
20260904195418 86 278 0.0 7.0 0.00 0.38 0.19 27 1012.0
20260904194905 86 284 0.0 7.0 0.00 0.38 0.19 26 1012.2
20260904194415 86 284 0.0 7.0 0.00 0.38 0.19 35 1012.1
20260904193912 87 306 0.0 5.0 0.00 0.38 0.19 36 1012.2
20260904193354 87 284 1.0 5.0 0.00 0.38 0.19 42 1012.2
20260904192850 87 265 1.0 5.0 0.00 0.38 0.19 44 1011.8
20260904192338 87 252 0.0 2.0 0.00 0.38 0.19 41 1011.6
20260904191833 88 252 0.0 2.0 0.00 0.38 0.19 34 1011.6
20260904191337 87 340 0.0 1.0 0.00 0.38 0.19 32 1012.0
20260904190150 87 284 1.0 6.0 0.00 0.38 0.19 41 1012.2
20260904185641 87 103 1.0 6.0 0.00 0.38 0.19 41 1012.4
20260904184520 87 350 0.0 6.0 0.00 0.38 0.19 37 1012.7
20260904184003 87 279 1.0 6.0 0.00 0.38 0.19 36 1012.6
20260904183450 87 67 1.0 6.0 0.00 0.38 0.19 36 1012.7
20260904182939 87 281 1.0 8.0 0.00 0.38 0.19 35 1012.8
20260904182425 87 299 1.0 8.0 0.00 0.38 0.19 34 1012.9
20260904181919 86 286 1.0 8.0 0.00 0.38 0.19 39 1012.8
20260904181428 86 293 1.0 8.0 0.00 0.38 0.19 33 1012.8
20260904180923 86 260 1.0 7.0 0.00 0.38 0.19 34 1012.8
20260904180412 86 279 1.0 7.0 0.00 0.38 0.19 38 1012.7
20260904175917 86 287 1.0 7.0 0.00 0.38 0.19 36 1012.8
20260904175420 86 296 1.0 7.0 0.00 0.38 0.19 32 1012.9
20260904174901 86 253 1.0 6.0 0.00 0.38 0.19 33 1012.9
20260904173714 85 282 1.0 6.0 0.00 0.38 0.19 23 1012.9
20260904173216 85 190 1.0 6.0 0.00 0.38 0.19 32 1012.9
20260904172658 85 249 1.0 6.0 0.00 0.38 0.19 29 1013.1
20260904172152 85 266 1.0 8.0 0.00 0.38 0.19 25 1012.9
20260904171636 85 234 1.0 8.0 0.00 0.38 0.19 24 1013.0
20260904171122 85 223 1.0 8.0 0.00 0.38 0.19 26 1013.2
20260904165956 85 249 0.0 1.0 0.00 0.38 0.19 1 1013.2
20260904164841 84 277 1.0 5.0 0.00 0.38 0.19 9 1013.4
20260904164328 84 146 0.0 6.0 0.00 0.38 0.19 1 1013.5
20260904163832 83 297 1.0 6.0 0.00 0.38 0.19 4 1013.6
20260904163336 83 316 2.0 7.0 0.00 0.38 0.19 15 1013.7
20260904162830 83 36 1.0 7.0 0.00 0.38 0.19 4 1013.7
20260904162323 83 255 1.0 7.0 0.00 0.38 0.19 4 1013.7
20260904161820 83 277 1.0 7.0 0.00 0.38 0.19 1 1013.7
20260904161305 83 288 0.0 4.0 0.00 0.38 0.19 1 1013.7
20260904160812 83 260 0.0 3.0 0.00 0.38 0.19 1 1013.7
20260904160309 82 238 0.0 5.0 0.00 0.38 0.19 1 1013.8
20260904155752 82 234 0.0 5.0 0.00 0.38 0.19 1 1013.8
20260904155259 82 301 0.0 5.0 0.00 0.39 0.19 1 1013.9
20260904154806 81 327 0.0 5.0 0.00 0.39 0.19 1 1013.9
20260904154316 81 348 0.0 6.0 0.00 0.40 0.19 1 1014.0
20260904153807 81 350 1.0 6.0 0.00 0.40 0.19 1 1014.0
20260904152644 80 188 0.0 6.0 0.00 0.40 0.19 1 1014.2
20260904152138 80 280 0.0 3.0 0.00 0.40 0.19 1 1014.2
20260904151636 80 232 0.0 11.0 0.00 0.40 0.19 1 1014.2
20260904150500 79 261 2.0 11.0 0.00 0.41 0.19 1 1014.1
20260904145334 78 180 1.0 6.0 0.00 0.41 0.19 1 1014.1
20260904144833 77 272 1.0 6.0 0.00 0.41 0.19 1 1014.1
20260904144343 76 298 1.0 5.0 0.00 0.41 0.19 1 1014.0
20260904143849 76 291 0.0 2.0 0.00 0.41 0.19 1 1014.1
20260904142729 76 26 1.0 6.0 0.00 0.41 0.19 1 1014.1
20260904142239 76 300 1.0 6.0 0.00 0.41 0.19 1 1013.9
20260904141720 76 269 0.0 6.0 0.00 0.41 0.19 1 1013.9
20260904141220 75 283 0.0 5.0 0.00 0.41 0.19 1 1013.9
20260904140725 75 91 0.0 3.0 0.00 0.41 0.19 1 1014.0
20260904135559 74 292 0.0 6.0 0.00 0.41 0.19 1 1014.0
20260904134432 73 278 0.0 6.0 0.00 0.41 0.19 1 1014.0
20260904133942 73 284 0.0 6.0 0.00 0.41 0.19 1 1014.0
20260904133445 73 282 0.0 3.0 0.00 0.41 0.19 1 1014.0
20260904132929 73 331 0.0 6.0 0.00 0.41 0.19 1 1014.0
20260904132437 72 17 0.0 6.0 0.00 0.41 0.19 1 1014.0
20260904131936 72 311 0.0 3.0 0.00 0.41 0.19 1 1014.0
20260904131417 72 65 0.0 3.0 0.00 0.41 0.19 1 1014.0
20260904130908 72 265 0.0 1.0 0.00 0.41 0.19 1 1013.9
20260904125109 72 355 0.0 0.0 0.00 0.41 0.19 1 1013.7
20260904124553 72 273 0.0 0.0 0.00 0.41 0.19 1 1013.8
20260904123430 72 252 0.0 0.0 0.00 0.41 0.19 1 1013.8
20260904122925 72 252 0.0 2.0 0.00 0.41 0.19 1 1013.8
20260904122428 71 282 0.0 0.0 0.00 0.41 0.19 1 1013.7
20260904121910 71 282 0.0 1.0 0.00 0.41 0.19 1 1013.8
20260904120728 71 289 0.0 0.0 0.00 0.41 0.19 1 1013.7
20260904120238 71 289 0.0 0.0 0.00 0.41 0.19 1 1013.7
20260904115727 71 289 0.0 0.0 0.00 0.41 0.19 1 1013.6
20260904115221 71 289 0.0 0.0 0.00 0.41 0.19 1 1013.6
20260904114710 71 290 0.0 0.0 0.00 0.41 0.19 1 1013.6
20260904114203 71 290 0.0 0.0 0.00 0.41 0.19 1 1013.5
20260904113707 71 290 0.0 0.0 0.00 0.41 0.19 1 1013.6
20260904113204 71 290 0.0 1.0 0.00 0.41 0.19 1 1013.6
20260904112037 71 290 0.0 0.0 0.00 0.41 0.19 1 1013.5
20260904111523 71 290 0.0 0.0 0.00 0.41 0.19 1 1013.5
20260904111021 71 234 0.0 0.0 0.00 0.41 0.19 1 1013.4
20260904110515 71 234 0.0 0.0 0.00 0.41 0.19 1 1013.3
20260904110014 71 234 0.0 0.0 0.00 0.41 0.19 1 1013.4
20260904105512 71 234 0.0 0.0 0.00 0.41 0.19 1 1013.2
20260904105016 71 234 0.0 0.0 0.00 0.42 0.19 1 1013.3
20260904104457 71 234 0.0 0.0 0.00 0.42 0.19 1 1013.3
20260904103953 71 234 0.0 0.0 0.00 0.42 0.19 1 1013.1
20260904103455 71 234 0.0 0.0 0.00 0.42 0.19 1 1012.9
20260904102939 71 234 0.0 1.0 0.00 0.42 0.19 1 1013.3
20260904102433 71 302 0.0 0.0 0.00 0.42 0.19 1 1013.0
20260904101918 71 302 0.0 0.0 0.00 0.42 0.19 1 1013.0
20260904101400 71 302 0.0 0.0 0.00 0.42 0.19 1 1013.0
20260904100904 71 302 0.0 0.0 0.00 0.42 0.19 1 1012.7
20260904100411 71 303 0.0 1.0 0.00 0.42 0.19 1 1012.7
20260904095918 71 304 0.0 0.0 0.00 0.42 0.19 1 1012.5
20260904095407 71 304 0.0 0.0 0.00 0.42 0.19 1 1012.5
20260904094918 71 304 0.0 0.0 0.04 0.42 0.19 1 1012.7
20260904094412 71 304 0.0 0.0 0.06 0.42 0.19 1 1012.9
20260904093913 71 291 0.0 3.0 0.13 0.42 0.19 1 1013.0
20260904093408 71 250 0.0 0.0 0.23 0.41 0.18 1 1012.9
20260904092902 71 250 0.0 4.0 0.47 0.37 0.16 1 1013.2
20260904092408 71 305 0.0 4.0 0.52 0.33 0.12 1 1013.5
20260904091915 71 282 0.0 4.0 0.40 0.31 0.09 1 1013.2
20260904091420 71 250 0.0 2.0 0.00 0.25 0.02 1 1013.6
20260904090913 71 251 0.0 0.0 0.00 0.25 0.02 1 1012.8
20260904090357 71 251 0.0 0.0 0.00 0.25 0.02 1 1012.7
20260904085327 71 251 0.0 0.0 0.00 0.25 0.02 1 1012.8
20260904084821 71 251 0.0 0.0 0.00 0.25 0.02 1 1012.9
20260904084316 71 251 0.0 0.0 0.00 0.25 0.02 1 1012.8
20260904083758 71 251 0.0 0.0 0.00 0.25 0.02 1 1012.7
20260904083257 71 251 0.0 0.0 0.00 0.25 0.02 1 1012.7
20260904082758 71 251 0.0 0.0 0.00 0.25 0.02 1 1012.6
20260904082307 71 251 0.0 0.0 0.00 0.25 0.02 1 1012.5
20260904081815 71 251 0.0 0.0 0.00 0.25 0.02 1 1012.5
20260904081312 71 251 0.0 0.0 0.00 0.25 0.02 1 1012.5
20260904080808 71 251 0.0 0.0 0.00 0.25 0.02 1 1012.4
20260904080255 71 255 0.0 0.0 0.00 0.25 0.02 1 1012.3
20260904075754 71 254 0.0 3.0 0.00 0.25 0.02 1 1012.2
20260904075241 71 300 0.0 3.0 0.00 0.25 0.02 1 1012.2
20260904074742 71 244 0.0 3.0 0.00 0.25 0.02 1 1012.3
20260904074247 71 287 0.0 0.0 0.00 0.25 0.02 1 1012.3
20260904073732 71 288 0.0 5.0 0.00 0.25 0.02 1 1012.4